Погода Градачагна неделю

Биельина, Босния и Герцеговина

19 - 25 июня
  • 19июня
    Сегодня
    +21°
    +37°
    Небольшая облачность
    ВремяПогодаТемператураВлажностьДавлениеВетер, м/сВероятность осадков
    02:00Ясно и безоблачно+22°C78 %747 мм1.9 м/с2 %
    05:00Ясно и безоблачно+19°C91 %747 мм1.9 м/с2 %
    08:00Ясно и безоблачно+26°C73 %748 мм1.7 м/с2 %
    11:00Ясно и безоблачно+33°C37 %748 мм2.0 м/с2 %
    14:00Небольшая облачность+36°C29 %747 мм2.4 м/с2 %
    17:00Ясно и безоблачно+37°C30 %747 мм1.8 м/с2 %
    20:00Ясно и безоблачно+31°C60 %747 мм1.3 м/с2 %
    23:00Ясно и безоблачно+28°C53 %748 мм2.7 м/с2 %
  • 20июня
    Четверг
    +22°
    +35°
    Облачно с прояснениями
    ВремяПогодаТемператураВлажностьДавлениеВетер, м/сВероятность осадков
    02:00Ясно и безоблачно+24°C66 %748 мм2.0 м/с2 %
    05:00Небольшая облачность+22°C77 %748 мм2.4 м/с2 %
    08:00Ясно и безоблачно+28°C56 %750 мм2.1 м/с2 %
    11:00Небольшая облачность+30°C44 %750 мм2.3 м/с2 %
    14:00Облачно с прояснениями+33°C41 %750 мм2.4 м/с2 %
    17:00Небольшая облачность+35°C39 %749 мм1.9 м/с2 %
    20:00Небольшая облачность+30°C64 %749 мм1.5 м/с2 %
    23:00Облачно с прояснениями+26°C77 %749 мм1.3 м/с2 %
  • 21июня
    Пятница
    +23°
    +39°
    Практически безоблачно
    ВремяПогодаТемператураВлажностьДавлениеВетер, м/сВероятность осадков
    02:00Облачно с прояснениями+23°C83 %749 мм1.0 м/с2 %
    05:00Облачно с прояснениями+22°C83 %748 мм1.9 м/с2 %
    08:00Практически безоблачно+28°C67 %748 мм1.7 м/с2 %
    11:00Облачно с прояснениями+33°C41 %748 мм2.0 м/с2 %
    14:00Практически безоблачно+37°C29 %747 мм1.9 м/с2 %
    17:00Облачно с прояснениями+39°C26 %746 мм1.8 м/с4 %
    20:00Облачно с прояснениями+31°C58 %745 мм1.1 м/с2 %
    23:00Ясно и безоблачно+26°C63 %745 мм2.2 м/с2 %
  • 22июня
    Суббота
    +20°
    +37°
    Небольшая облачность
    ВремяПогодаТемператураВлажностьДавлениеВетер, м/сВероятность осадков
    02:00Ясно и безоблачно+26°C53 %744 мм2.8 м/с2 %
    05:00Ясно и безоблачно+24°C61 %743 мм2.9 м/с2 %
    08:00Ясно и безоблачно+29°C55 %743 мм1.7 м/с2 %
    11:00Ясно и безоблачно+34°C36 %743 мм2.2 м/с2 %
    14:00Небольшая облачность+35°C35 %743 мм2.3 м/с37 %
    17:00Небольшая облачность+31°C48 %743 мм2.5 м/с20 %
    20:00Ясно и безоблачно+28°C57 %743 мм2.5 м/с3 %
    23:00Практически безоблачно+25°C66 %744 мм1.8 м/с2 %
  • 23июня
    Воскресенье
    +19°
    +33°
    Ясно и безоблачно
    ВремяПогодаТемператураВлажностьДавлениеВетер, м/сВероятность осадков
    02:00Небольшая облачность+22°C64 %744 мм2.4 м/с12 %
    05:00Ясно и безоблачно+20°C62 %744 мм2.0 м/с17 %
    08:00Ясно и безоблачно+23°C52 %745 мм1.7 м/с17 %
    11:00Практически безоблачно+28°C47 %745 мм2.3 м/с10 %
    14:00Ясно и безоблачно+30°C40 %744 мм2.8 м/с12 %
    17:00Практически безоблачно+33°C40 %744 мм2.3 м/с26 %
    20:00Ясно и безоблачно+27°C63 %744 мм1.3 м/с17 %
    23:00Ясно и безоблачно+24°C76 %745 мм1.4 м/с9 %
Мы используем cookies
Соглашаюсь